Regional Weather Roundup
Issued by NWS

Home | Current Version | Previous Version | Graphics & Text | Print | Product List | Glossary On
Versions: 1 2 3 4 5 6 7 8 9 10 11 12 13 14 15 16 17 18 19 20 21 22 23 24 25 26 27 28 29 30 31 32 33 34 35 36 37 38 39 40 41 42 43 44 45 46 47 48 49 50
000
ASUS43 KTOP 220659
RWRKS

WEATHER ROUNDUP FOR KANSAS
NATIONAL WEATHER SERVICE GOODLAND KS
200 AM CDT SUN OCT 22 2017

NOTE:  "FAIR" INDICATES FEW OR NO CLOUDS BELOW 12,000 FEET WITH NO
SIGNIFICANT WEATHER AND/OR OBSTRUCTIONS TO VISIBILITY.

KSZ001>006-013>018-027>032-041>047-220800-
NORTHWEST KANSAS

CITY           SKY/WX    TMP DP  RH WIND       PRES   REMARKS
GOODLAND       CLEAR     34  20  56 W8        30.13R
HAYS           CLOUDY    38  34  85 W7        30.09R
HILL CITY      CLEAR     36  29  75 W7        30.09S
RUSSELL        PTCLDY    41  39  93 W6        30.05F
$$

KSZ061>065-074>080-084>089-220800-
SOUTHWEST KANSAS

CITY           SKY/WX    TMP DP  RH WIND       PRES   REMARKS
DODGE CITY     PTCLDY    36  31  82 W8        30.13R
ELKHART          N/A     41  18  39 NW7         N/A
GARDEN CITY    CLEAR     36  23  59 NW12      30.16R WCI  28
GREAT BEND     CLOUDY    40  37  89 W7        30.09R
LIBERAL        CLEAR     34  26  72 NW7       30.17R
$$

KSZ066>073-081>083-090>101-220800-
SOUTHEAST KANSAS

CITY           SKY/WX    TMP DP  RH WIND       PRES   REMARKS
CHANUTE        RAIN      53  50  89 N8        30.00R
COFFEYVILLE    RAIN      54  53  97 N9        30.00R
HUTCHINSON     CLOUDY    52  41  66 CALM      30.06R
MEDICINE LODGE   N/A     50  38  63 W3        30.07R
NEWTON         MOCLDY    50  43  77 NW6       30.07R
PARSONS        TSTM      53  51  93 N6        30.03R
WICHITA INTL   CLOUDY    54  43  66 N6        30.06R
WICHITA JABRA  CLOUDY    51  46  83 N6        30.05R
WICHITA MCCONL CLOUDY    52  44  74 N7        30.05R
WINFIELD       CLOUDY    52  51  97 N5        30.05R
$$

KSZ007>012-019>026-033>040-048>060-102>105-220800-
NORTHEAST KANSAS

CITY           SKY/WX    TMP DP  RH WIND       PRES   REMARKS
CONCORDIA      CLOUDY    46  42  86 W5        30.02F
EMPORIA        CLOUDY    50  47  89 N5        30.01R
LAWRENCE       LGT RAIN  52  49  89 N7        29.98S
MANHATTAN      CLOUDY    53  42  66 VRB3      30.00F
OLATHE IND     RAIN      51  50  96 N12       29.98R
OLATHE EXE     RAIN      50  49  96 N17       29.97R
SALINA         CLOUDY    51  43  74 W7        30.04R
TOPEKA BILLARD CLOUDY    52  50  93 N6        29.95F
TOPEKA FORBES  CLOUDY    52  49  89 N8        29.96S
$$



USA.gov is the U.S. government's official web portal to all federal, state and local government web resources and services.